Location: Tr�vern
(48.0333°N, 4.6000°W)
Time: 18:05:58
(UTC+00:00)

CZ-4C R/B - Pass Details

Date: 14 July 2020
Orbit: 632 x 1370 km, 63.4° (Epoch: 12 August)

Event Time Altitude Azimuth Distance (km) Brightness Sun altitude
Rises 00:13:55 0° 315° (NW) 3,876 6.4 -20.3°
Reaches altitude 10° 00:16:34 10° 309° (NW) 3,019 5.6 -20.3°
Maximum altitude 00:23:23 42° 242° (WSW) 1,718 3.5 -20.3°
Enters shadow 00:26:33 30° 197° (SSW) 2,137 3.7 -20.3°
